Location: Carnoy
(49.9849°N, 2.7558°E)
Time: 09:32:54
(UTC+00:00)

Cosmos 2297 Rocket - Pass Details

Date: 24 January 2020
Orbit: 838 x 845 km, 71.0° (Epoch: 17 February)

Event Time Altitude Azimuth Distance (km) Brightness Sun altitude
Rises 17:38:07 0° 196° (SSW) 3,382 5.8 -11.0°
Reaches altitude 10° 17:40:34 10° 193° (SSW) 2,452 5.0 -11.4°
Maximum altitude 17:46:06 63° 113° (ESE) 941 2.2 -12.3°
Drops below altitude 10° 17:51:42 10° 34° (NE) 2,474 4.2 -13.1°
Enters shadow 17:51:57 - 34° (NE) 2,566 4.3 -13.2°
